LXGB

Details ICAO LXGB (GIB)
Name Gibraltar
Region Gibralter
Timezone Europe/Gibraltar (UTC+1.0)
Plans Departing 3534
Arriving 4810
Stats Elevation 15 ft / 5 m (AMSL)
Location 36.151200° -5.349850°
Runways 1
Magnetic Variation 0.541° W
Sunrise 2023-02-01 07:24:01 UTC / 2023-02-01 08:24:01 Local
Sunset 2023-02-01 17:48:19 UTC / 2023-02-01 18:48:19 Local
Advertisement - Login to hide

Runways

ID Width Length Bearing (true/mag) Surface Threshold Overrun Markings Lighting
09 148 ft / 45 m 5,836 ft / 1,779 m 87.52° / 88.06° ASPHALT 476 ft / 145 m 0 ft / 0 m UK-PREC-APP EDGE THRESHOLD REIL-OMNI
27 148 ft / 45 m 5,836 ft / 1,779 m 267.53° / 268.08° ASPHALT 354 ft / 108 m 0 ft / 0 m UK-PREC-APP EDGE THRESHOLD REIL-OMNI

Map

Weather


0- 5 10 15 20 25 30 35+ Temperature / °C

Clouds and Precipitation
Forecast for 2023-02-01 18:00 UTC. Updated 4 hours ago

Ground ~20,000 ft ~40,000 ft Winds

METAR

LXGB 011850Z 07010KT 9999 BKN019 14/10 Q1026 NOSIG

TAF

Not found

Frequencies

Approach 264.87 MHz Gibraltar Approach
Approach 130.40 MHz Gibraltar Radar
Approach 235.05 MHz Gibraltar Radar
Tower 131.20 MHz Gibraltar Tower
Tower 240.57 MHz Gibraltar Tower
Approach 122.80 MHz Gibraltar Approach
Warning: Do not use this data for real-world aviation or navigation. No guarantee of current accuracy is given.